User: anonymous   Login
Location: Unspecified
(0.0000°N, 0.0000°E)
Time: 16:04:23
(UTC+00:00)
Language:

ITAMSAT 1 - Orbit

View from above orbital plane
View from above orbital plane
View from above satellite
View from above satellite

Ground track
Ground track

The orbit data is extracted from the following two-line orbital elements,

1 22826U 93061D   20292.95864461 -.00000012 +00000-0 +13398-4 0  9999
2 22826 098.9207 298.4713 0009136 012.3772 347.7632 14.30431690411708
Epoch (UTC): 18 October 2020 23:00:26
Eccentricity: 0.0009136
inclination: 98.9207°
perigee height: 784 km
apogee height: 797 km
right ascension of ascending node: 298.4713°
argument of perigee: 12.3772°
revolutions per day: 14.30431690
mean anomaly at epoch: 347.7632°
orbit number at epoch: 41170

The dashed part of the orbit path shows where the satellite is in the earth's shadow,  

DLR